Starlink 34549

operational
NORAD ID: 65017 Int'l Des: 2025-161 Owner: SPXS Country: US Constellation: starlink
LEOCIRCULAR

About Starlink 34549

Description loading...

Live Position

Loading 3D Globe...

Upcoming Passes

Altitude History

Altitude vs Time

uPlot chart will show altitude changes over time

Two-Line Element Set

1 65017U 25161C 26102.38583189 .00001076 00000-0 48471-4 0 9992
2 65017 53.1579 137.3471 0001253 83.7044 276.4099 15.30173986 40604
Epoch: Apr 12, 2026 • Age: 10 hours

Current Status

Altitude 478.2 km
Velocity 7.63 km/s
Sub-Earth Point 39.96°N, 147.53°E
Launch Date Jul 30, 2025
Age 0.7 years
Type internet

Technical Details

Classification Payload
Mass 575.00 kg
Dry Mass 530.00 kg
Total Mass 575.00 kg
Length 0.30 m
Diameter 4.10 m
Span 29.00 m
Shape Box + pan
Manufacturer SPXS
Bus Type Starlink V2MO
Phase Status In Orbit
Owner/State SPXS/US

Large Constellations

Loading constellations...